User: anonymous   Login
Location: Radomski Observatory
(40.2854°N, 79.5145°W)
Time: 07:58:47
(UTC-04:00)
Language:

Cosmos 1072 Rocket - Orbit

View from above orbital plane
View from above orbital plane
View from above satellite
View from above satellite

Ground track
Ground track

The orbit data is extracted from the following two-line orbital elements,

1 11239U 79003B   17085.70351969 +.00000004 +00000-0 -10747-4 0  9994
2 11239 082.9391 149.8029 0039315 262.8878 209.6938 13.75810780916255
Epoch (UTC): 26 March 2017 16:53:04
Eccentricity: 0.0039315
inclination: 82.9391°
perigee height: 950 km
apogee height: 1008 km
right ascension of ascending node: 149.8029°
argument of perigee: 262.8878°
revolutions per day: 13.75810780
mean anomaly at epoch: 209.6938°
orbit number at epoch: 91625

The dashed part of the orbit path shows where the satellite is in the earth's shadow,  

DLR